Total_Precipitation_Accumulation
1.31 1.53 1.13 0.62 0.43 0.32 0.27 0.18 0.12 0.09 0.10 0.10 0.07 0.05 0.06 0.06 0.05 0.04 0.03 0.04 0.06 0.07 0.08 0.07 0.08 0.11 0.14 0.20 0.26 0.31 0.34 0.40 0.43 0.41 0.39 0.36 0.34 0.36 0.36 0.33 0.32 0.28 0.22 0.18
1.29 1.14 0.62 0.40 0.43 0.42 0.39 0.31 0.18 0.11 0.09 0.11 0.08 0.05 0.04 0.04 0.04 0.04 0.02 0.02 0.03 0.04 0.05 0.07 0.08 0.09 0.11 0.13 0.17 0.24 0.28 0.35 0.38 0.35 0.40 0.43 0.50 0.54 0.54 0.50 0.42 0.37 0.34 0.30
0.92 0.65 0.51 0.54 0.60 0.58 0.45 0.34 0.25 0.16 0.10 0.12 0.12 0.08 0.03 0.02 0.02 0.03 0.02 0.02 0.02 0.02 0.02 0.04 0.06 0.07 0.08 0.09 0.11 0.15 0.21 0.27 0.32 0.39 0.49 0.56 0.60 0.52 0.47 0.42 0.40 0.40 0.41 0.41
0.78 0.55 0.62 0.65 0.60 0.56 0.49 0.26 0.26 0.25 0.26 0.21 0.13 0.12 0.03 0.01 0.01 0.01 0.01 0.01 0.01 0.01 0.01 0.02 0.03 0.04 0.05 0.07 0.10 0.13 0.17 0.22 0.27 0.35 0.36 0.39 0.39 0.35 0.34 0.40 0.46 0.48 0.47 0.46
0.76 0.58 0.68 0.69 0.47 0.46 0.46 0.28 0.29 0.34 0.38 0.33 0.17 0.12 0.03 0.01 0.00 0.00 0.00 0.00 0.01 0.01 0.01 0.01 0.02 0.03 0.04 0.06 0.09 0.11 0.14 0.19 0.25 0.29 0.32 0.35 0.33 0.34 0.37 0.40 0.41 0.42 0.42 0.42
0.57 0.57 0.72 0.61 0.42 0.47 0.53 0.52 0.55 0.56 0.68 0.61 0.18 0.11 0.03 0.00 0.00 0.00 0.00 0.00 0.00 0.00 0.01 0.01 0.02 0.02 0.03 0.04 0.06 0.08 0.11 0.13 0.17 0.23 0.28 0.29 0.32 0.35 0.36 0.36 0.36 0.37 0.40 0.40
0.81 0.68 0.69 0.70 0.71 0.72 0.80 1.08 1.39 1.26 1.00 0.45 0.10 0.09 0.03 0.00 0.00 0.00 0.00 0.00 0.00 0.00 0.00 0.01 0.01 0.01 0.01 0.02 0.04 0.06 0.08 0.09 0.12 0.17 0.21 0.23 0.28 0.33 0.32 0.33 0.34 0.34 0.32 0.29
0.89 0.87 0.67 0.81 0.87 0.86 0.77 0.91 1.06 0.82 0.43 0.15 0.07 0.06 0.01 0.00 0.00 0.00 0.00 0.00 0.00 0.00 0.00 0.00 0.00 0.00 0.01 0.01 0.02 0.04 0.05 0.07 0.11 0.13 0.14 0.16 0.19 0.24 0.25 0.27 0.27 0.29 0.29 0.32
0.69 0.72 0.55 0.68 0.71 0.66 0.71 0.68 0.58 0.68 0.42 0.20 0.08 0.03 0.01 0.00 0.00 0.00 0.00 0.00 0.00 0.00 0.00 0.00 0.00 0.00 0.00 0.01 0.01 0.02 0.03 0.06 0.08 0.10 0.13 0.13 0.13 0.15 0.18 0.21 0.23 0.24 0.26 0.28
0.65 0.79 0.64 0.74 0.88 0.75 0.62 0.55 0.69 0.96 0.72 0.35 0.10 0.02 0.00 0.00 0.00 0.00 0.00 0.00 0.00 0.00 0.00 0.00 0.00 0.00 0.00 0.01 0.01 0.02 0.03 0.05 0.07 0.09 0.10 0.10 0.10 0.12 0.15 0.16 0.15 0.16 0.19 0.21
0.67 0.91 0.80 0.89 0.99 0.68 0.57 0.68 0.79 0.79 0.55 0.44 0.24 0.07 0.02 0.01 0.01 0.01 0.00 0.00 0.00 0.00 0.00 0.00 0.00 0.00 0.01 0.01 0.02 0.02 0.03 0.04 0.05 0.07 0.08 0.09 0.09 0.10 0.11 0.12 0.12 0.13 0.15 0.16
0.67 0.95 0.82 0.72 0.58 0.47 0.45 0.42 0.56 0.81 0.60 0.39 0.30 0.14 0.05 0.03 0.02 0.02 0.02 0.02 0.01 0.01 0.00 0.00 0.00 0.00 0.01 0.02 0.02 0.03 0.03 0.05 0.06 0.07 0.08 0.09 0.11 0.12 0.12 0.12 0.12 0.12 0.12 0.11
0.65 0.97 0.95 0.83 0.69 0.62 0.56 0.38 0.41 0.65 0.83 0.61 0.42 0.18 0.07 0.07 0.07 0.06 0.05 0.05 0.04 0.03 0.02 0.01 0.01 0.01 0.01 0.02 0.03 0.04 0.05 0.05 0.05 0.06 0.08 0.09 0.10 0.10 0.11 0.10 0.10 0.09 0.08 0.08
0.78 0.92 0.83 0.73 0.62 0.59 0.52 0.38 0.43 0.83 0.96 0.53 0.28 0.17 0.11 0.11 0.13 0.10 0.09 0.09 0.08 0.05 0.04 0.03 0.03 0.04 0.04 0.04 0.04 0.05 0.05 0.05 0.05 0.05 0.07 0.08 0.09 0.10 0.10 0.10 0.10 0.09 0.08 0.07
0.79 0.92 0.67 0.50 0.39 0.42 0.42 0.31 0.38 0.60 0.58 0.54 0.29 0.20 0.19 0.17 0.16 0.13 0.13 0.11 0.08 0.07 0.05 0.04 0.04 0.04 0.04 0.04 0.04 0.04 0.05 0.06 0.07 0.08 0.08 0.08 0.09 0.11 0.11 0.12 0.11 0.11 0.09 0.08
0.53 0.73 0.67 0.50 0.31 0.31 0.33 0.25 0.30 0.37 0.36 0.39 0.31 0.26 0.17 0.15 0.15 0.14 0.14 0.12 0.08 0.07 0.05 0.04 0.04 0.05 0.04 0.04 0.04 0.04 0.05 0.06 0.07 0.09 0.10 0.10 0.10 0.11 0.12 0.13 0.13 0.13 0.14 0.14
0.38 0.52 0.65 0.45 0.24 0.33 0.36 0.27 0.31 0.33 0.28 0.32 0.34 0.28 0.16 0.16 0.15 0.15 0.14 0.11 0.08 0.06 0.04 0.03 0.03 0.04 0.04 0.04 0.05 0.06 0.07 0.08 0.10 0.11 0.12 0.13 0.16 0.17 0.15 0.16 0.19 0.19 0.21 0.24
0.26 0.40 0.58 0.46 0.33 0.37 0.23 0.17 0.22 0.25 0.25 0.24 0.23 0.18 0.14 0.14 0.15 0.15 0.13 0.11 0.08 0.05 0.03 0.03 0.02 0.03 0.03 0.03 0.03 0.04 0.06 0.08 0.13 0.17 0.19 0.19 0.21 0.24 0.25 0.25 0.28 0.29 0.32 0.38
0.14 0.34 0.56 0.47 0.37 0.22 0.12 0.10 0.15 0.23 0.25 0.15 0.12 0.11 0.09 0.10 0.11 0.11 0.11 0.10 0.09 0.07 0.05 0.04 0.04 0.04 0.03 0.04 0.05 0.05 0.06 0.09 0.15 0.20 0.23 0.23 0.25 0.28 0.32 0.37 0.41 0.40 0.40 0.43
0.14 0.25 0.51 0.46 0.39 0.24 0.12 0.06 0.07 0.18 0.32 0.12 0.08 0.07 0.07 0.08 0.11 0.10 0.10 0.10 0.08 0.08 0.08 0.07 0.07 0.07 0.07 0.09 0.11 0.12 0.14 0.16 0.19 0.20 0.24 0.25 0.28 0.32 0.36 0.41 0.46 0.47 0.43 0.38
0.22 0.33 0.40 0.36 0.32 0.15 0.07 0.04 0.06 0.24 0.37 0.14 0.09 0.08 0.07 0.08 0.08 0.07 0.07 0.06 0.06 0.07 0.09 0.11 0.13 0.15 0.17 0.19 0.20 0.22 0.23 0.24 0.24 0.25 0.28 0.30 0.31 0.34 0.37 0.38 0.37 0.35 0.31 0.24
0.16 0.21 0.20 0.19 0.25 0.16 0.07 0.08 0.14 0.20 0.14 0.10 0.10 0.10 0.12 0.14 0.11 0.08 0.07 0.06 0.06 0.07 0.10 0.12 0.16 0.19 0.22 0.24 0.25 0.26 0.28 0.29 0.28 0.28 0.29 0.30 0.30 0.28 0.24 0.22 0.22 0.18 0.14 0.10
0.12 0.15 0.16 0.14 0.16 0.12 0.09 0.11 0.11 0.10 0.08 0.08 0.08 0.09 0.11 0.16 0.16 0.14 0.11 0.08 0.07 0.08 0.10 0.12 0.13 0.14 0.15 0.19 0.24 0.27 0.28 0.27 0.25 0.23 0.23 0.22 0.19 0.16 0.12 0.09 0.07 0.06 0.05 0.04
0.12 0.10 0.11 0.11 0.10 0.08 0.08 0.08 0.05 0.04 0.05 0.07 0.09 0.10 0.11 0.12 0.16 0.15 0.14 0.11 0.10 0.10 0.08 0.08 0.09 0.10 0.10 0.11 0.14 0.16 0.17 0.16 0.14 0.13 0.12 0.10 0.08 0.07 0.05 0.03 0.02 0.02 0.01 0.01
0.13 0.12 0.11 0.10 0.07 0.06 0.06 0.06 0.05 0.05 0.05 0.06 0.08 0.09 0.10 0.10 0.13 0.15 0.14 0.11 0.11 0.09 0.08 0.06 0.05 0.05 0.05 0.06 0.07 0.07 0.06 0.06 0.06 0.05 0.04 0.03 0.03 0.02 0.02 0.02 0.02 0.01 0.01 0.01
0.08 0.10 0.13 0.12 0.07 0.08 0.07 0.05 0.04 0.04 0.03 0.04 0.07 0.08 0.08 0.09 0.12 0.12 0.11 0.09 0.09 0.10 0.09 0.05 0.04 0.04 0.04 0.04 0.04 0.04 0.03 0.03 0.02 0.02 0.02 0.02 0.02 0.02 0.02 0.02 0.02 0.02 0.02 0.02